W3EX Weather Reports


time (UTC)temp
F
wind
direction
speed
knots
gust
knots
rain 1hr
in
rain 24hr
in
rain mn
in
humidity
%
barometer
mb
20260510141502 58 340 0.0 4.3 0.00 0.22 0.02 90 1009.9
20260510140003 57 325 0.9 3.5 0.00 0.22 0.02 92 1009.8
20260510134602 56 11 0.9 2.6 0.01 0.22 0.02 95 1009.7
20260510133002 55 9 0.9 2.6 0.01 0.22 0.02 95 1009.7
20260510131606 55 9 0.9 2.6 0.01 0.22 0.02 96 1009.7
20260510124508 53 14 0.9 2.6 0.00 0.21 0.01 96 1009.9
20260510123113 53 342 0.9 1.7 0.00 0.21 0.01 96 1009.7
20260510121503 53 342 0.0 1.7 0.00 0.21 0.01 96 1009.5
20260510114502 52 205 0.0 3.5 0.00 0.21 0.01 96 1008.9
20260510113112 52 194 0.0 1.7 0.00 0.21 0.01 96 1008.6
20260510111503 52 12 0.0 1.7 0.00 0.21 0.01 96 1008.6
20260510104502 51 15 0.0 1.7 0.00 0.21 0.01 96 1008.6
20260510103104 51 15 0.0 0.0 0.00 0.21 0.01 96 1008.5
20260510101502 51 15 0.0 0.0 0.00 0.21 0.01 96 1008.4
20260510100113 51 15 0.0 1.7 0.00 0.21 0.01 96 1008.2
20260510094603 51 15 0.0 1.7 0.00 0.21 0.01 96 1008.3
20260510093002 51 15 0.0 0.0 0.00 0.21 0.01 96 1008.0
20260510091502 51 15 0.0 0.0 0.00 0.21 0.01 96 1007.7
20260510090129 51 15 0.0 0.9 0.00 0.21 0.01 96 1007.8
20260510084502 51 15 0.0 1.7 0.00 0.21 0.01 96 1008.2
20260510083114 50 15 0.0 1.7 0.00 0.21 0.01 96 1008.3
20260510081509 50 26 0.9 4.3 0.00 0.21 0.01 96 1008.2
20260510080103 49 27 0.0 4.3 0.00 0.21 0.01 96 1007.7
20260510074507 49 13 0.0 0.0 0.00 0.21 0.01 96 1007.4
20260510073105 49 13 0.0 0.0 0.00 0.21 0.01 96 1007.3
20260510071502 48 13 0.0 0.0 0.00 0.21 0.01 95 1007.3
20260510070003 48 13 0.0 0.0 0.00 0.21 0.01 95 1007.3
20260510064612 48 13 0.0 1.7 0.00 0.21 0.01 95 1007.4
20260510063006 48 15 0.0 1.7 0.00 0.21 0.01 95 1007.3
20260510061602 49 207 0.0 0.0 0.01 0.21 0.01 95 1007.1
20260510060009 49 207 0.0 0.0 0.01 0.21 0.01 95 1007.0
20260510054604 49 207 0.0 0.0 0.01 0.21 0.01 95 1007.2
20260510053004 49 207 0.0 0.0 0.01 0.21 0.01 95 1007.2
20260510051503 49 207 0.0 0.0 0.00 0.20 0.00 95 1007.2
20260510050114 49 207 0.0 0.0 0.00 0.20 0.00 95 1007.4
20260510044506 49 207 0.0 0.0 0.00 0.20 0.00 95 1007.5
20260510043103 49 207 0.0 0.0 0.00 0.20 0.00 95 1007.5
20260510041502 49 207 0.0 0.0 0.00 0.20 0.00 95 1007.6
20260510034502 48 207 0.0 0.0 0.00 0.20 0.20 94 1007.6
20260510033002 48 207 0.0 0.0 0.00 0.20 0.20 94 1007.5
20260510031610 49 207 0.0 0.0 0.00 0.20 0.20 93 1007.4
20260510030002 49 207 0.0 0.0 0.00 0.20 0.20 93 1007.2
20260510024602 50 207 0.0 0.0 0.00 0.20 0.20 93 1007.2
20260510023002 50 207 0.0 0.0 0.00 0.20 0.20 93 1007.2
20260510021603 50 207 0.0 0.0 0.00 0.20 0.20 92 1007.0
20260510020003 51 207 0.0 0.0 0.00 0.20 0.20 92 1007.0
20260510014604 51 207 0.0 0.0 0.00 0.20 0.20 92 1007.0
20260510013002 52 207 0.0 0.0 0.01 0.20 0.20 91 1006.9
20260510011604 52 207 0.0 0.0 0.01 0.20 0.20 91 1006.8
20260510010002 53 207 0.0 0.0 0.01 0.20 0.20 90 1006.7
20260510004602 54 207 0.0 0.0 0.01 0.20 0.20 89 1006.5
20260510003003 54 207 0.0 0.0 0.00 0.19 0.19 89 1006.5
20260510001603 55 207 0.0 0.0 0.00 0.19 0.19 89 1006.3
20260510000002 56 206 0.0 1.7 0.00 0.19 0.19 88 1006.2
20260509234630 57 207 0.0 1.7 0.00 0.19 0.19 87 1006.4
20260509233008 58 211 0.9 3.5 0.01 0.19 0.19 87 1006.3
20260509231613 58 199 0.0 2.6 0.01 0.19 0.19 86 1006.3
20260509230002 59 207 0.0 1.7 0.01 0.19 0.19 84 1006.2
20260509224605 59 213 0.9 3.5 0.01 0.19 0.19 82 1006.2
20260509223004 59 196 0.0 2.6 0.00 0.18 0.18 84 1006.3
20260509221602 59 199 0.9 1.7 0.01 0.18 0.18 85 1006.2
20260509220004 58 215 0.0 1.7 0.01 0.18 0.18 88 1005.9
20260509214602 58 217 0.0 1.7 0.01 0.18 0.18 85 1006.1
20260509213003 58 360 0.0 1.7 0.02 0.18 0.18 86 1006.1
20260509211604 57 15 0.9 2.6 0.01 0.17 0.17 85 1006.5
20260509210003 58 338 0.0 3.5 0.02 0.17 0.17 90 1006.3
20260509204602 57 19 0.9 1.7 0.02 0.17 0.17 89 1006.3
20260509203002 56 355 0.0 1.7 0.02 0.16 0.16 90 1006.3
20260509201604 55 5 0.0 1.7 0.03 0.16 0.16 92 1006.3
20260509200002 55 13 0.0 0.0 0.03 0.15 0.15 92 1006.5
20260509194602 55 13 0.0 1.7 0.03 0.15 0.15 92 1006.8
20260509193002 55 360 0.0 1.7 0.03 0.14 0.14 92 1007.0
20260509191602 55 360 0.0 2.6 0.04 0.13 0.13 91 1007.3
20260509190002 55 47 0.9 5.2 0.04 0.12 0.12 91 1007.4
20260509184611 55 9 1.7 3.5 0.05 0.12 0.12 92 1007.7
20260509183003 55 51 0.0 2.6 0.05 0.10 0.10 91 1007.6
20260509181608 55 28 0.9 2.6 0.05 0.09 0.09 90 1007.8
20260509180001 55 342 0.0 2.6 0.05 0.08 0.08 89 1008.0
20260509174602 56 344 0.0 2.6 0.05 0.07 0.07 88 1007.9
20260509173002 56 16 1.7 2.6 0.04 0.05 0.05 88 1007.7
20260509171603 57 326 0.0 1.7 0.04 0.04 0.04 87 1007.5
20260509170002 57 5 0.0 1.7 0.03 0.03 0.03 85 1007.7
20260509164610 58 321 0.0 1.7 0.02 0.02 0.02 84 1007.7
20260509163004 58 252 0.0 2.6 0.01 0.01 0.01 80 1007.9
20260509161603 59 175 1.7 4.3 0.00 0.00 0.00 78 1008.1
20260509160003 60 332 1.7 7.8 0.00 0.00 0.00 76 1008.0
20260509154620 60 201 2.6 8.7 0.00 0.00 0.00 74 1008.5
20260509153103 61 203 0.9 4.3 0.00 0.00 0.00 75 1008.2
20260509151503 61 205 1.7 7.8 0.00 0.00 0.00 73 1008.2
20260509150112 60 5 2.6 7.0 0.00 0.00 0.00 74 1008.3
20260509144502 60 234 1.7 4.3 0.00 0.00 0.00 75 1008.1
20260509143108 59 292 0.9 3.5 0.00 0.00 0.00 76 1008.2